1998-067JB

Last updated on Fri May 20 2016 09:36:28 GMT+0000 (Coordinated Universal Time)

1 41481U 98067JB 16141.19321116 -.00001224 00000-0 -10665-4 0 9998 2 41481 51.6411 197.6689 0002334 221.2453 229.7076 15.55329420 420
UTC large
Height (km)
Speed (km/s)
/
Latitude / Longitude
Inclination (degrees)
Orbital Period (minutes)
Azimuth
Elevation
Range (km)
Doppler Factor

Next 0 passes for location: London (51.5072 / 0.1276)

Sorry there are no passes over London.